FW7889 Weather Reports


time (UTC)temp
F
wind
direction
speed
knots
gust
knots
rain 1hr
in
rain 24hr
in
rain mn
in
humidity
%
barometer
mb
20260505050224 58 276 0.0 0.9 0.00 0.00 0.00 65 1059.8
20260505041220 58 270 0.0 0.9 0.00 0.00 0.00 63 1059.7
20260505040220 58 255 1.7 1.7 0.00 0.00 0.00 63 1059.5
20260505035218 58 272 0.0 0.0 0.00 0.00 0.00 64 1059.2
20260505034218 57 230 0.0 0.0 0.00 0.00 0.00 66 1059.1
20260505033213 57 220 0.9 0.9 0.00 0.00 0.00 66 1059.3
20260505032212 57 255 0.0 0.0 0.00 0.00 0.00 66 1059.1
20260505031211 56 225 1.7 1.7 0.00 0.00 0.00 67 1059.2
20260505030210 54 269 0.0 0.9 0.00 0.00 0.00 71 1059.5
20260505025205 51 274 0.9 0.9 0.00 0.00 0.00 76 1059.6
20260505024205 51 281 0.0 0.9 0.00 0.00 0.00 81 1059.6
20260505023200 52 294 0.9 0.9 0.00 0.00 0.00 79 1059.7
20260505022159 52 285 0.9 0.9 0.00 0.00 0.00 78 1059.6
20260505021159 52 304 0.9 1.7 0.00 0.00 0.00 77 1059.7
20260505020156 52 283 0.9 0.9 0.00 0.00 0.00 79 1059.8
20260505015156 52 305 0.9 1.7 0.00 0.00 0.00 80 1059.9
20260505014156 52 294 0.9 0.9 0.00 0.00 0.00 77 1060.0
20260505013156 52 279 0.0 0.0 0.00 0.00 0.00 79 1059.9
20260505012152 53 298 0.9 0.9 0.00 0.00 0.00 77 1059.7
20260505011149 54 264 0.0 0.0 0.00 0.00 0.00 78 1059.8
20260505010148 54 264 0.0 0.0 0.00 0.00 0.00 76 1059.8
20260505005147 55 267 0.0 0.0 0.00 0.00 0.00 74 1060.1
20260505004146 55 264 0.0 0.0 0.00 0.00 0.00 73 1059.9
20260505003141 56 264 0.0 0.0 0.00 0.00 0.00 70 1059.8
20260505002141 57 264 0.0 0.0 0.00 0.00 0.00 71 1059.6
20260505001141 59 264 0.0 0.0 0.00 0.00 0.00 66 1059.6
20260505000136 60 264 0.0 0.0 0.00 0.00 0.00 62 1059.6
20260504235134 62 264 0.0 0.0 0.00 0.00 0.00 57 1059.7
20260504234129 64 264 0.9 0.9 0.00 0.00 0.00 53 1059.8
20260504233126 64 256 2.6 2.6 0.00 0.00 0.00 52 1059.5
20260504232121 65 259 0.9 0.9 0.00 0.00 0.00 51 1059.6
20260504231120 65 262 2.6 2.6 0.00 0.00 0.00 51 1059.6
20260504230115 65 243 3.5 4.3 0.00 0.00 0.00 50 1059.5
20260504225115 65 246 3.5 5.2 0.00 0.00 0.00 50 1059.6
20260504224114 65 248 1.7 4.3 0.00 0.00 0.00 50 1059.5
20260504223113 66 234 6.1 6.1 0.00 0.00 0.00 50 1059.5
20260504222113 66 262 2.6 2.6 0.00 0.00 0.00 51 1059.7
20260504221113 65 251 6.1 7.0 0.00 0.00 0.00 50 1059.8
20260504220113 65 259 4.3 6.1 0.00 0.00 0.00 50 1059.3
20260504215113 66 282 2.6 2.6 0.00 0.00 0.00 51 1059.5
20260504214110 66 243 3.5 5.2 0.00 0.00 0.00 50 1059.2
20260504213110 66 237 4.3 6.1 0.00 0.00 0.00 49 1059.3
20260504212109 66 287 0.9 0.9 0.00 0.00 0.00 50 1059.6
20260504211109 66 215 4.3 7.0 0.00 0.00 0.00 49 1059.8
20260504210108 66 249 2.6 4.3 0.00 0.00 0.00 52 1059.5
20260504205103 65 247 5.2 5.2 0.00 0.00 0.00 53 1059.6
20260504204100 65 235 2.6 4.3 0.00 0.00 0.00 51 1059.8
20260504203055 65 270 1.7 1.7 0.00 0.00 0.00 51 1060.0
20260504202054 65 230 9.6 12.2 0.00 0.00 0.00 51 1059.8
20260504201048 65 300 4.3 5.2 0.00 0.00 0.00 51 1059.8
20260504200047 65 252 7.0 8.7 0.00 0.00 0.00 51 1059.9
20260504195046 64 266 4.3 6.1 0.00 0.00 0.00 52 1060.0
20260504194043 64 256 2.6 4.3 0.00 0.00 0.00 52 1060.1
20260504193039 64 247 7.0 7.8 0.00 0.00 0.00 53 1060.0
20260504192035 63 226 4.3 5.2 0.00 0.00 0.00 55 1060.0
20260504191034 63 234 6.1 7.0 0.00 0.00 0.00 54 1060.3
20260504190032 64 241 8.7 9.6 0.00 0.00 0.00 53 1060.5
20260504185032 64 248 7.8 8.7 0.00 0.00 0.00 54 1060.5
20260504184028 63 278 1.7 1.7 0.00 0.00 0.00 56 1060.3
20260504183024 63 247 7.0 8.7 0.00 0.00 0.00 55 1060.7
20260504182024 61 256 6.1 6.1 0.00 0.00 0.00 59 1060.3
20260504181019 63 255 3.5 4.3 0.00 0.00 0.00 57 1060.7
20260504180016 62 224 3.5 5.2 0.00 0.00 0.00 58 1060.8
20260504175016 61 245 5.2 7.0 0.00 0.00 0.00 59 1060.9
20260504174016 62 242 6.1 7.8 0.00 0.00 0.00 59 1060.7
20260504173016 62 242 4.3 6.1 0.00 0.00 0.00 58 1060.8
20260504172014 60 234 0.9 1.7 0.00 0.00 0.00 60 1060.9
20260504171014 60 258 2.6 5.2 0.00 0.00 0.00 62 1060.7
20260504150952 54 333 0.9 0.9 0.00 0.00 0.00 65 1061.8
20260504140950 51 241 8.7 12.2 0.00 0.00 0.00 68 1061.5
20260504081840 43 251 0.9 1.7 0.00 0.00 0.00 95 1062.2
20260504080838 43 269 0.0 0.9 0.00 0.00 0.00 96 1062.1